Regional Weather Roundup
Issued by NWS Newport/Morehead, NC

Current Version | Previous Version | Graphics & Text | Print | Product List | Glossary Off
Versions: 1 2 3 4 5 6 7 8 9 10 11 12 13 14 15 16 17 18 19 20 21 22 23 24 25 26 27 28 29 30 31 32 33 34 35 36 37 38 39 40 41 42 43 44 45 46 47 48 49 50

000
ASUS42 KMHX 231825
RWRMHX
WEATHER ROUNDUP FOR EASTERN NORTH CAROLINA
NATIONAL WEATHER SERVICE NEWPORT/MOREHEAD CITY NC
100 PM EST TUE JAN 23 2018

NOTE: "FAIR" INDICATES FEW OR NO CLOUDS BELOW 12,000 FEET
WITH NO SIGNIFICANT WEATHER AND/OR OBSTRUCTIONS TO VISIBILITY

NCZ015>017-031-032-045>047-102-103-231900-
NORTH COAST

CITY           SKY/WX    TMP DP  RH WIND       PRES   REMARKS
EDENTON        CLOUDY    68  62  81 SW13      29.74F
ELIZABETH CITY CLOUDY    65  50  58 S12       29.73F
KITTY HAWK     CLOUDY    62  62 100 SW9       29.75F
MANTEO         CLOUDY    57  55  92 SW10G21   29.77F

$$

NCZ045>047-081-094-103-104-231900-
CENTRAL COAST

CITY           SKY/WX    TMP DP  RH WIND       PRES   REMARKS
FRISCO         NOT AVBL

$$

NCZ095-097-098-100-101-231900-
SOUTHERN COAST

CITY           SKY/WX    TMP DP  RH WIND       PRES   REMARKS
BEAUFORT       CLOUDY    58  58 100 SW18G30   29.82F FOG
CEDAR ISLAND   NOT AVBL
JACKSONVILLE   CLOUDY    69  64  84 SW10G22   29.80F
PINEY ISLAND   NOT AVBL
WILMINGTON     CLOUDY    69  63  81 SW17      29.82F


$$

NCZ011>013-027>030-043-044-078>080-089-090>093-098-231900-
COASTAL PLAIN

CITY           SKY/WX    TMP DP  RH WIND       PRES   REMARKS
AHOSKIE        LGT RAIN  67  61  79 SW6       29.70F
CLINTON        FAIR      73  60  65 SW17G28   29.78F
ELIZABETHTOWN  NOT AVBL
GOLDSBORO      FAIR      73  60  63 SW18G36   29.72F
GREENVILLE     FAIR      73  59  60 SW21G38   29.75F
HAVELOCK       CLOUDY    67  62  84 SW20G25   29.81F
KENANSVILLE    PTSUNNY   73  61  64 SW14G25   29.77F
KINSTON        PTSUNNY   73  61  64 SW17G35   29.76F
NEW BERN       CLOUDY    69  63  81 SW12      29.79F
RICHLANDS      CLOUDY    70  63  78 SW17G25   29.80F
ROCKY MOUNT    LGT RAIN  66  62  87 SW13G26   29.73F
WASHINGTON     PTSUNNY   72  62  70 SW15G21   29.73F
WHITEVILLE     FAIR      72  61  67 SW16G25   29.81F

$$

AMZ130-135-150-152-154-156-158-170-250-252-270-ANZ085-086-088-633-658-670-231900-
MARINE OBSERVATIONS

STATION/POSITION TIME  TEMP    WIND        PRES    WAVE   SWELL
                       AIR SEA DIR/SP/G            HT/PER HT/PER
                 (UTC) (F)     (DEG/KT/KT) (MB)    (FT/S) (FT/S)
CHESAPEAKE LIGHT NOT AVBL
64 E VA BEACH    1750   62 57  210/ 25/ 29 1007.1    9/ 7   2/13
DUCK             1800   61 42  200/ 16/ 19 1006.4
2 E DUCK         1800      41                N/A     4/ 7
OREGON INLET     1800   49 47  210/ 15/ 17 1008.2
13E OREGON INLT  1748      41                N/A     7/ 8   5/ 8
HATTERAS CG      1800   63 54  220/ 19/ 26 1009.3
DIAMOND BUOY     1810   69 70  230/ 25/ 35 1010.0
CAPE LOOKOUT     1800          230/ 14/ 19 1010.2
BEAUFORT LAB     1800   57 49  230/  7/ 14 1009.7
30 SE NEW RVR IN 1808   63 58  220/ 19/ 25 1009.9
30 SE NEW RVR IN 1800      58                N/A     9/ 8
27 SE WRIGHTSVLE 1808   61 61  220/ 25/ 35 1010.7
5 SE WRIGHTSVLE  1808   54 47  230/ 16/ 21 1010.0
225 S CAPE HAT   1750   71 70  180/ 17/ 21 1015.8    6/ 7   2/ 9
41 SE CHARLESTON 1800   68 69  220/ 23/ 31 1012.1

$$




USA.gov is the U.S. government's official web portal to all federal, state and local government web resources and services.